Location: Eschertshofen
(49.3064°N, 11.5756°E)
Time: 17:44:06
(UTC+00:00)

Spot 2 Rocket - Pass Details

Date: 29 June 2021
Orbit: 757 x 771 km, 98.5° (Epoch: 25 July)

Event Time Altitude Azimuth Distance (km) Brightness Sun altitude
Exits shadow 21:32:52 - 206° (SSW) 2,634 5.9 -13.9°
Reaches altitude 10° 21:33:53 10° 213° (SSW) 2,301 5.7 -13.9°
Maximum altitude 21:38:01 25° 267° (W) 1,522 5.3 -14.2°
Drops below altitude 10° 21:42:12 10° 322° (NW) 2,322 7.3 -14.5°
Sets 21:44:55 0° 336° (NNW) 3,256 8.7 -14.7°
